This is the latest recevied weather packets stored in our database for station/object WA6OOO. If no packets are shown the sender has not sent any weather packets the latest 10 day(s).
| Time | Temp. | Humidity | Pressure | Rain* | Wind** | Luminosity | Snow |
|---|---|---|---|---|---|---|---|
| 1777840745 | 17.78° C | 61% | 1017.2 hPa | 0 mm | - | 375 W/m² | - |
| 1777840442 | 17.78° C | 62% | 1017.3 hPa | 0 mm | - | 367 W/m² | - |
| 1777840139 | 17.22° C | 62% | 1017.2 hPa | 0 mm | - | 364 W/m² | - |
| 1777839837 | 17.22° C | 62% | 1017.5 hPa | 0 mm | - | 354 W/m² | - |
| 1777839535 | 17.22° C | 63% | 1017.5 hPa | 0 mm | - | 333 W/m² | - |
| 1777839232 | 17.22° C | 64% | 1017.4 hPa | 0 mm | - | 347 W/m² | - |
| 1777838930 | 17.22° C | 63% | 1017.3 hPa | 0 mm | - | 364 W/m² | - |
| 1777838625 | 17.22° C | 65% | 1017.5 hPa | 0 mm | - | 377 W/m² | - |
| 1777838323 | 17.22° C | 63% | 1017.4 hPa | 0 mm | - | 404 W/m² | - |
| 1777838019 | 17.22° C | 64% | 1017.4 hPa | 0 mm | - | 482 W/m² | - |
| 1777837716 | 16.67° C | 66% | 1017.5 hPa | 0 mm | - | 477 W/m² | - |
| 1777837412 | 16.67° C | 66% | 1017.6 hPa | 0 mm | - | 379 W/m² | - |
| 1777837109 | 16.67° C | 67% | 1017.8 hPa | 0 mm | - | 362 W/m² | - |
| 1777836805 | 16.67° C | 67% | 1017.7 hPa | 0 mm | - | 335 W/m² | - |
| 1777836501 | 16.11° C | 69% | 1017.7 hPa | 0 mm | - | 278 W/m² | - |
| 1777836196 | 16.11° C | 70% | 1017.8 hPa | 0 mm | - | 230 W/m² | - |
| 1777835892 | 16.11° C | 69% | 1017.8 hPa | 0 mm | - | 236 W/m² | - |
| 1777835590 | 15.56° C | 70% | 1017.5 hPa | 0 mm | - | 221 W/m² | - |
| 1777835287 | 15.56° C | 70% | 1017.5 hPa | 0 mm | - | 186 W/m² | - |
| 1777834984 | 15.56° C | 71% | 1017.8 hPa | 0 mm | - | 178 W/m² | - |
| 1777834680 | 16.11° C | 70% | 1017.7 hPa | 0 mm | - | 194 W/m² | - |
| 1777834375 | 16.11° C | 70% | 1017.9 hPa | 0 mm | - | 210 W/m² | - |
| 1777834070 | 16.11° C | 70% | 1017.7 hPa | 0 mm | - | 242 W/m² | - |
| 1777833767 | 16.11° C | 69% | 1017.7 hPa | 0 mm | - | 266 W/m² | - |
| 1777833463 | 16.11° C | 69% | 1017.8 hPa | 0 mm | - | 271 W/m² | - |
* Rain latest hour (hover to see other rain measurements)
** Current wind speed in m/s (hover to see current wind gust speed)